www.cux-wetter.de
Wetterdaten: Dienstag, 29.06.2010
Datum Zeit Temp. A. Feuchte A. Luftdruck Regen Wind Richtung Richtung Sonnenschein Solar Taupunkt Windchill Windben
29.06.2010 00:00 19,8 C 71 % 1016,5 hPa 0,0 l/m 0,9 km/h (0 Bft) SO 125 0 min 0 W/m 14,4 C 19,8 C 0,9 km/h (0 Bft)
29.06.2010 00:06 19,6 C 71 % 1016,5 hPa 0,0 l/m 1,0 km/h (0 Bft) O-SO 120 0 min 0 W/m 14,2 C 19,6 C 1,0 km/h (0 Bft)
29.06.2010 00:11 19,5 C 71 % 1016,5 hPa 0,0 l/m 5,2 km/h (1 Bft) SO 145 0 min 0 W/m 14,1 C 19,5 C 5,2 km/h (1 Bft)
29.06.2010 00:16 19,4 C 72 % 1016,5 hPa 0,0 l/m 0,6 km/h (0 Bft) O-SO 120 0 min 0 W/m 14,2 C 19,4 C 0,6 km/h (0 Bft)
29.06.2010 00:20 19,2 C 72 % 1016,5 hPa 0,0 l/m 3,6 km/h (1 Bft) SO 125 0 min 0 W/m 14,0 C 19,2 C 3,6 km/h (1 Bft)
29.06.2010 00:25 19,1 C 72 % 1016,5 hPa 0,0 l/m 0,3 km/h (0 Bft) SO 125 0 min 0 W/m 13,9 C 19,1 C 0,3 km/h (0 Bft)
29.06.2010 00:30 19,0 C 72 % 1016,5 hPa 0,0 l/m 1,0 km/h (0 Bft) SO 125 0 min 0 W/m 13,8 C 19,0 C 1,0 km/h (0 Bft)
29.06.2010 00:35 18,9 C 73 % 1016,5 hPa 0,0 l/m 1,2 km/h (1 Bft) O-SO 120 0 min 0 W/m 13,9 C 18,9 C 1,2 km/h (1 Bft)
29.06.2010 00:40 18,8 C 72 % 1016,5 hPa 0,0 l/m 3,0 km/h (1 Bft) SO 140 0 min 0 W/m 13,6 C 18,8 C 3,0 km/h (1 Bft)
29.06.2010 00:45 18,7 C 72 % 1016,5 hPa 0,0 l/m 1,2 km/h (1 Bft) SO 140 0 min 0 W/m 13,5 C 18,7 C 1,2 km/h (1 Bft)
29.06.2010 00:50 18,6 C 72 % 1016,5 hPa 0,0 l/m 3,3 km/h (1 Bft) SO 130 0 min 0 W/m 13,4 C 18,6 C 3,3 km/h (1 Bft)
29.06.2010 00:56 18,5 C 73 % 1016,5 hPa 0,0 l/m 0,4 km/h (0 Bft) SO 130 0 min 0 W/m 13,6 C 18,5 C 0,4 km/h (0 Bft)
29.06.2010 01:01 18,4 C 73 % 1016,5 hPa 0,0 l/m 0,0 km/h (0 Bft) SO 130 0 min 0 W/m 13,5 C 18,4 C 0,0 km/h (0 Bft)
29.06.2010 01:05 18,3 C 74 % 1016,5 hPa 0,0 l/m 0,0 km/h (0 Bft) SO 130 0 min 0 W/m 13,6 C 18,3 C 0,0 km/h (0 Bft)
29.06.2010 01:10 18,2 C 74 % 1016,5 hPa 0,0 l/m 0,8 km/h (0 Bft) SO 130 0 min 0 W/m 13,5 C 18,2 C 0,8 km/h (0 Bft)
29.06.2010 01:15 18,1 C 74 % 1016,5 hPa 0,0 l/m 0,1 km/h (0 Bft) SO 130 0 min 0 W/m 13,4 C 18,1 C 0,1 km/h (0 Bft)
29.06.2010 01:20 18,0 C 74 % 1016,5 hPa 0,0 l/m 4,0 km/h (1 Bft) SO 135 0 min 0 W/m 13,3 C 18,0 C 4,0 km/h (1 Bft)
29.06.2010 01:25 18,0 C 74 % 1016,5 hPa 0,0 l/m 0,4 km/h (0 Bft) SO 140 0 min 0 W/m 13,3 C 18,0 C 0,4 km/h (0 Bft)
29.06.2010 01:31 17,9 C 75 % 1016,5 hPa 0,0 l/m 0,7 km/h (0 Bft) SO 140 0 min 0 W/m 13,4 C 17,9 C 0,7 km/h (0 Bft)
29.06.2010 01:36 17,9 C 75 % 1016,5 hPa 0,0 l/m 3,4 km/h (1 Bft) SO 140 0 min 0 W/m 13,4 C 17,9 C 3,4 km/h (1 Bft)
29.06.2010 01:41 17,8 C 75 % 1016,5 hPa 0,0 l/m 0,7 km/h (0 Bft) SO 140 0 min 0 W/m 13,3 C 17,8 C 0,7 km/h (0 Bft)
29.06.2010 01:45 17,7 C 75 % 1016,5 hPa 0,0 l/m 0,0 km/h (0 Bft) SO 140 0 min 0 W/m 13,2 C 17,7 C 0,0 km/h (0 Bft)
29.06.2010 01:50 17,6 C 76 % 1016,5 hPa 0,0 l/m 0,0 km/h (0 Bft) SO 140 0 min 0 W/m 13,3 C 17,6 C 0,0 km/h (0 Bft)
29.06.2010 01:55 17,6 C 76 % 1016,5 hPa 0,0 l/m 0,4 km/h (0 Bft) SO 140 0 min 0 W/m 13,3 C 17,6 C 0,4 km/h (0 Bft)
29.06.2010 02:00 17,5 C 76 % 1016,5 hPa 0,0 l/m 0,0 km/h (0 Bft) SO 140 0 min 0 W/m 13,2 C 17,5 C 0,0 km/h (0 Bft)
29.06.2010 02:06 17,4 C 76 % 1016,5 hPa 0,0 l/m 0,1 km/h (0 Bft) SO 140 0 min 0 W/m 13,1 C 17,4 C 0,1 km/h (0 Bft)
29.06.2010 02:11 17,4 C 76 % 1016,5 hPa 0,0 l/m 0,0 km/h (0 Bft) SO 140 0 min 0 W/m 13,1 C 17,4 C 0,0 km/h (0 Bft)
29.06.2010 02:16 17,3 C 77 % 1016,5 hPa 0,0 l/m 0,1 km/h (0 Bft) SO 140 0 min 0 W/m 13,2 C 17,3 C 0,1 km/h (0 Bft)
29.06.2010 02:21 17,3 C 77 % 1016,5 hPa 0,0 l/m 0,0 km/h (0 Bft) SO 140 0 min 0 W/m 13,2 C 17,3 C 0,0 km/h (0 Bft)
29.06.2010 02:25 17,2 C 77 % 1015,5 hPa 0,0 l/m 3,1 km/h (1 Bft) SO 140 0 min 0 W/m 13,1 C 17,2 C 3,1 km/h (1 Bft)
29.06.2010 02:30 17,2 C 77 % 1015,5 hPa 0,0 l/m 2,8 km/h (1 Bft) SO 135 0 min 0 W/m 13,1 C 17,2 C 2,8 km/h (1 Bft)
29.06.2010 02:35 17,2 C 77 % 1015,5 hPa 0,0 l/m 0,6 km/h (0 Bft) SO 135 0 min 0 W/m 13,1 C 17,2 C 0,6 km/h (0 Bft)
29.06.2010 02:40 17,2 C 77 % 1015,5 hPa 0,0 l/m 0,0 km/h (0 Bft) SO 135 0 min 0 W/m 13,1 C 17,2 C 0,0 km/h (0 Bft)
29.06.2010 02:45 17,1 C 77 % 1015,5 hPa 0,0 l/m 0,6 km/h (0 Bft) SO 135 0 min 0 W/m 13,0 C 17,1 C 0,6 km/h (0 Bft)
29.06.2010 02:50 17,0 C 77 % 1015,5 hPa 0,0 l/m 0,6 km/h (0 Bft) SO 135 0 min 0 W/m 12,9 C 17,0 C 0,6 km/h (0 Bft)
29.06.2010 02:55 17,0 C 78 % 1015,5 hPa 0,0 l/m 2,8 km/h (1 Bft) SO 135 0 min 0 W/m 13,1 C 17,0 C 2,8 km/h (1 Bft)
29.06.2010 03:01 17,0 C 78 % 1015,5 hPa 0,0 l/m 3,6 km/h (1 Bft) SO 135 0 min 0 W/m 13,1 C 17,0 C 3,6 km/h (1 Bft)
29.06.2010 03:05 17,0 C 78 % 1015,5 hPa 0,0 l/m 6,5 km/h (2 Bft) SO 145 0 min 0 W/m 13,1 C 17,0 C 6,5 km/h (2 Bft)
29.06.2010 03:10 16,9 C 78 % 1015,5 hPa 0,0 l/m 3,0 km/h (1 Bft) S-SO 155 0 min 0 W/m 13,0 C 16,9 C 3,0 km/h (1 Bft)
29.06.2010 03:15 16,9 C 78 % 1015,5 hPa 0,0 l/m 3,0 km/h (1 Bft) S-SO 155 0 min 0 W/m 13,0 C 16,9 C 3,0 km/h (1 Bft)
29.06.2010 03:20 16,9 C 78 % 1015,5 hPa 0,0 l/m 1,2 km/h (1 Bft) SO 125 0 min 0 W/m 13,0 C 16,9 C 1,2 km/h (1 Bft)
29.06.2010 03:25 16,8 C 78 % 1015,5 hPa 0,0 l/m 9,2 km/h (2 Bft) S-SO 165 0 min 0 W/m 12,9 C 15,4 C 9,2 km/h (2 Bft)
29.06.2010 03:30 16,9 C 78 % 1015,5 hPa 0,0 l/m 7,2 km/h (2 Bft) W-NW 295 0 min 0 W/m 13,0 C 16,5 C 7,2 km/h (2 Bft)
29.06.2010 03:36 17,0 C 77 % 1015,5 hPa 0,0 l/m 0,1 km/h (0 Bft) W-NW 290 0 min 0 W/m 12,9 C 17,0 C 0,1 km/h (0 Bft)
29.06.2010 03:41 16,9 C 77 % 1015,5 hPa 0,0 l/m 0,6 km/h (0 Bft) W-NW 290 0 min 0 W/m 12,8 C 16,9 C 0,6 km/h (0 Bft)
29.06.2010 03:46 16,8 C 77 % 1015,5 hPa 0,0 l/m 1,6 km/h (1 Bft) W-NW 290 0 min 0 W/m 12,7 C 16,8 C 1,6 km/h (1 Bft)
29.06.2010 03:50 16,8 C 77 % 1015,5 hPa 0,0 l/m 0,0 km/h (0 Bft) W-NW 290 0 min 0 W/m 12,7 C 16,8 C 0,0 km/h (0 Bft)
29.06.2010 03:55 16,7 C 77 % 1015,5 hPa 0,0 l/m 0,0 km/h (0 Bft) W-NW 290 0 min 0 W/m 12,6 C 16,7 C 0,0 km/h (0 Bft)
29.06.2010 04:00 16,6 C 77 % 1015,5 hPa 0,0 l/m 0,0 km/h (0 Bft) W-NW 290 0 min 0 W/m 12,5 C 16,6 C 0,0 km/h (0 Bft)
29.06.2010 04:05 16,5 C 77 % 1015,5 hPa 0,0 l/m 0,0 km/h (0 Bft) W-NW 290 0 min 0 W/m 12,5 C 16,5 C 0,0 km/h (0 Bft)
29.06.2010 04:11 16,4 C 77 % 1015,5 hPa 0,0 l/m 0,0 km/h (0 Bft) W-NW 290 0 min 0 W/m 12,4 C 16,4 C 0,0 km/h (0 Bft)
29.06.2010 04:16 16,3 C 78 % 1015,5 hPa 0,0 l/m 0,0 km/h (0 Bft) W-NW 290 0 min 0 W/m 12,5 C 16,3 C 0,0 km/h (0 Bft)
29.06.2010 04:21 16,2 C 78 % 1015,5 hPa 0,0 l/m 0,0 km/h (0 Bft) W-NW 290 0 min 0 W/m 12,4 C 16,2 C 0,0 km/h (0 Bft)
29.06.2010 04:25 16,1 C 78 % 1015,5 hPa 0,0 l/m 0,0 km/h (0 Bft) W-NW 290 0 min 0 W/m 12,3 C 16,1 C 0,0 km/h (0 Bft)
29.06.2010 04:30 16,0 C 78 % 1015,5 hPa 0,0 l/m 0,0 km/h (0 Bft) W-NW 290 0 min 0 W/m 12,2 C 16,0 C 0,0 km/h (0 Bft)
29.06.2010 04:35 16,0 C 78 % 1015,5 hPa 0,0 l/m 0,0 km/h (0 Bft) W-NW 290 0 min 0 W/m 12,2 C 16,0 C 0,0 km/h (0 Bft)
29.06.2010 04:40 15,8 C 78 % 1015,5 hPa 0,0 l/m 0,0 km/h (0 Bft) W-NW 290 0 min 0 W/m 12,0 C 15,8 C 0,0 km/h (0 Bft)
29.06.2010 04:45 15,7 C 79 % 1015,5 hPa 0,0 l/m 0,0 km/h (0 Bft) W-NW 290 0 min 0 W/m 12,1 C 15,7 C 0,0 km/h (0 Bft)
29.06.2010 04:50 15,6 C 79 % 1015,5 hPa 0,0 l/m 0,0 km/h (0 Bft) W-NW 290 0 min 0 W/m 12,0 C 15,6 C 0,0 km/h (0 Bft)
29.06.2010 04:55 15,6 C 79 % 1015,5 hPa 0,0 l/m 0,0 km/h (0 Bft) W-NW 290 0 min 0 W/m 12,0 C 15,6 C 0,0 km/h (0 Bft)
29.06.2010 05:01 15,6 C 79 % 1015,5 hPa 0,0 l/m 0,0 km/h (0 Bft) W-NW 290 0 min 0 W/m 12,0 C 15,6 C 0,0 km/h (0 Bft)
29.06.2010 05:05 15,5 C 79 % 1015,5 hPa 0,0 l/m 0,0 km/h (0 Bft) W-NW 290 0 min 0 W/m 11,9 C 15,5 C 0,0 km/h (0 Bft)
29.06.2010 05:10 15,4 C 79 % 1015,5 hPa 0,0 l/m 0,0 km/h (0 Bft) W-NW 290 0 min 0 W/m 11,8 C 15,4 C 0,0 km/h (0 Bft)
29.06.2010 05:15 15,3 C 79 % 1015,5 hPa 0,0 l/m 0,0 km/h (0 Bft) W-NW 290 0 min 0 W/m 11,7 C 15,3 C 0,0 km/h (0 Bft)
29.06.2010 05:20 15,2 C 79 % 1015,5 hPa 0,0 l/m 0,0 km/h (0 Bft) W-NW 290 0 min 0 W/m 11,6 C 15,2 C 0,0 km/h (0 Bft)
29.06.2010 05:25 15,2 C 79 % 1015,5 hPa 0,0 l/m 0,0 km/h (0 Bft) W-NW 290 0 min 0 W/m 11,6 C 15,2 C 0,0 km/h (0 Bft)
29.06.2010 05:31 15,2 C 80 % 1015,5 hPa 0,0 l/m 0,0 km/h (0 Bft) W-NW 290 0 min 0 W/m 11,8 C 15,2 C 0,0 km/h (0 Bft)
29.06.2010 05:36 15,2 C 80 % 1015,5 hPa 0,0 l/m 0,0 km/h (0 Bft) W-NW 290 0 min 0 W/m 11,8 C 15,2 C 0,0 km/h (0 Bft)
29.06.2010 05:41 15,1 C 81 % 1015,5 hPa 0,0 l/m 0,1 km/h (0 Bft) W-NW 290 0 min 0 W/m 11,9 C 15,1 C 0,1 km/h (0 Bft)
29.06.2010 05:45 15,2 C 81 % 1015,5 hPa 0,0 l/m 0,0 km/h (0 Bft) W-NW 290 0 min 0 W/m 12,0 C 15,2 C 0,0 km/h (0 Bft)
29.06.2010 05:50 15,2 C 80 % 1015,5 hPa 0,0 l/m 0,0 km/h (0 Bft) W-NW 290 0 min 0 W/m 11,8 C 15,2 C 0,0 km/h (0 Bft)
29.06.2010 05:55 15,2 C 81 % 1015,5 hPa 0,0 l/m 0,0 km/h (0 Bft) W-NW 290 0 min 0 W/m 12,0 C 15,2 C 0,0 km/h (0 Bft)
29.06.2010 06:00 15,3 C 81 % 1015,5 hPa 0,0 l/m 0,0 km/h (0 Bft) W-NW 290 0 min 0 W/m 12,1 C 15,3 C 0,0 km/h (0 Bft)
29.06.2010 06:06 15,3 C 81 % 1015,5 hPa 0,0 l/m 0,0 km/h (0 Bft) W-NW 290 0 min 0 W/m 12,1 C 15,3 C 0,0 km/h (0 Bft)
29.06.2010 06:11 15,4 C 82 % 1015,5 hPa 0,0 l/m 0,0 km/h (0 Bft) W-NW 290 0 min 0 W/m 12,3 C 15,4 C 0,0 km/h (0 Bft)
29.06.2010 06:16 15,5 C 82 % 1015,5 hPa 0,0 l/m 0,0 km/h (0 Bft) W-NW 290 0 min 0 W/m 12,4 C 15,5 C 0,0 km/h (0 Bft)
29.06.2010 06:20 15,6 C 82 % 1015,5 hPa 0,0 l/m 0,0 km/h (0 Bft) W-NW 290 0 min 0 W/m 12,5 C 15,6 C 0,0 km/h (0 Bft)
29.06.2010 06:25 15,7 C 82 % 1015,5 hPa 0,0 l/m 0,0 km/h (0 Bft) W-NW 290 0 min 0 W/m 12,6 C 15,7 C 0,0 km/h (0 Bft)
29.06.2010 06:30 15,8 C 81 % 1015,5 hPa 0,0 l/m 0,0 km/h (0 Bft) W-NW 290 0 min 0 W/m 12,5 C 15,8 C 0,0 km/h (0 Bft)
29.06.2010 06:35 16,0 C 81 % 1015,5 hPa 0,0 l/m 0,0 km/h (0 Bft) W-NW 290 0 min 0 W/m 12,7 C 16,0 C 0,0 km/h (0 Bft)
29.06.2010 06:40 16,1 C 81 % 1015,5 hPa 0,0 l/m 0,0 km/h (0 Bft) W-NW 290 0 min 0 W/m 12,8 C 16,1 C 0,0 km/h (0 Bft)
29.06.2010 06:45 16,2 C 81 % 1015,5 hPa 0,0 l/m 0,0 km/h (0 Bft) W-NW 290 0 min 0 W/m 12,9 C 16,2 C 0,0 km/h (0 Bft)
29.06.2010 06:51 16,4 C 81 % 1015,5 hPa 0,0 l/m 0,0 km/h (0 Bft) W-NW 290 0 min 0 W/m 13,1 C 16,4 C 0,0 km/h (0 Bft)
29.06.2010 06:56 16,6 C 81 % 1015,5 hPa 0,0 l/m 0,0 km/h (0 Bft) W-NW 290 0 min 0 W/m 13,3 C 16,6 C 0,0 km/h (0 Bft)
29.06.2010 07:00 16,7 C 81 % 1015,5 hPa 0,0 l/m 0,0 km/h (0 Bft) W-NW 290 0 min 0 W/m 13,4 C 16,7 C 0,0 km/h (0 Bft)
29.06.2010 07:05 16,9 C 81 % 1015,5 hPa 0,0 l/m 0,0 km/h (0 Bft) W-NW 290 0 min 0 W/m 13,6 C 16,9 C 0,0 km/h (0 Bft)
29.06.2010 07:10 17,2 C 81 % 1015,5 hPa 0,0 l/m 0,0 km/h (0 Bft) W-NW 290 0 min 0 W/m 13,9 C 17,2 C 0,0 km/h (0 Bft)
29.06.2010 07:15 17,6 C 81 % 1015,5 hPa 0,0 l/m 0,0 km/h (0 Bft) W-NW 290 0 min 0 W/m 14,3 C 17,6 C 0,0 km/h (0 Bft)
29.06.2010 07:21 17,7 C 81 % 1015,5 hPa 0,0 l/m 0,0 km/h (0 Bft) W-NW 290 0 min 0 W/m 14,4 C 17,7 C 0,0 km/h (0 Bft)
29.06.2010 07:26 17,8 C 80 % 1015,5 hPa 0,0 l/m 0,0 km/h (0 Bft) W-NW 290 0 min 0 W/m 14,3 C 17,8 C 0,0 km/h (0 Bft)
29.06.2010 07:31 18,2 C 80 % 1015,5 hPa 0,0 l/m 0,0 km/h (0 Bft) W-NW 290 0 min 0 W/m 14,7 C 18,2 C 0,0 km/h (0 Bft)
29.06.2010 07:35 18,3 C 80 % 1015,5 hPa 0,0 l/m 0,0 km/h (0 Bft) W-NW 290 0 min 0 W/m 14,8 C 18,3 C 0,0 km/h (0 Bft)
29.06.2010 07:40 18,5 C 80 % 1015,5 hPa 0,0 l/m 0,0 km/h (0 Bft) W-NW 290 0 min 0 W/m 15,0 C 18,5 C 0,0 km/h (0 Bft)
29.06.2010 07:45 18,8 C 79 % 1015,5 hPa 0,0 l/m 0,0 km/h (0 Bft) W-NW 290 0 min 0 W/m 15,1 C 18,8 C 0,0 km/h (0 Bft)
29.06.2010 07:50 19,1 C 78 % 1015,5 hPa 0,0 l/m 0,0 km/h (0 Bft) W-NW 290 0 min 0 W/m 15,2 C 19,1 C 0,0 km/h (0 Bft)
29.06.2010 07:55 19,2 C 78 % 1015,5 hPa 0,0 l/m 0,0 km/h (0 Bft) W-NW 290 0 min 0 W/m 15,3 C 19,2 C 0,0 km/h (0 Bft)
29.06.2010 08:00 19,6 C 77 % 1015,5 hPa 0,0 l/m 0,0 km/h (0 Bft) W-NW 290 0 min 0 W/m 15,5 C 19,6 C 0,0 km/h (0 Bft)
29.06.2010 08:05 20,0 C 75 % 1015,5 hPa 0,0 l/m 5,0 km/h (1 Bft) W-SW 255 0 min 0 W/m 15,4 C 20,0 C 5,0 km/h (1 Bft)
29.06.2010 08:10 20,2 C 75 % 1015,5 hPa 0,0 l/m 3,9 km/h (1 Bft) W 275 0 min 0 W/m 15,6 C 20,2 C 3,9 km/h (1 Bft)
29.06.2010 08:15 20,7 C 75 % 1015,5 hPa 0,0 l/m 11,6 km/h (2 Bft) W-SW 255 0 min 0 W/m 16,1 C 18,9 C 11,6 km/h (2 Bft)
29.06.2010 08:20 21,1 C 75 % 1015,5 hPa 0,0 l/m 14,0 km/h (3 Bft) W-NW 300 0 min 0 W/m 16,5 C 18,8 C 14,0 km/h (3 Bft)
29.06.2010 08:25 21,3 C 76 % 1015,5 hPa 0,0 l/m 12,0 km/h (2 Bft) N-NW 330 0 min 0 W/m 16,9 C 19,5 C 12,0 km/h (2 Bft)
29.06.2010 08:30 21,5 C 74 % 1015,5 hPa 0,0 l/m 11,0 km/h (2 Bft) N-NW 340 0 min 0 W/m 16,7 C 20,0 C 11,0 km/h (2 Bft)
29.06.2010 08:36 21,4 C 74 % 1015,5 hPa 0,0 l/m 8,2 km/h (2 Bft) N-NW 335 0 min 0 W/m 16,6 C 20,8 C 8,2 km/h (2 Bft)
29.06.2010 08:41 21,5 C 74 % 1015,5 hPa 0,0 l/m 8,3 km/h (2 Bft) NW 305 0 min 0 W/m 16,7 C 20,8 C 8,3 km/h (2 Bft)
29.06.2010 08:45 22,0 C 73 % 1015,5 hPa 0,0 l/m 7,8 km/h (2 Bft) N-NW 335 0 min 0 W/m 16,9 C 21,5 C 7,8 km/h (2 Bft)
29.06.2010 08:50 22,4 C 72 % 1015,5 hPa 0,0 l/m 8,9 km/h (2 Bft) N 10 0 min 0 W/m 17,1 C 21,6 C 8,9 km/h (2 Bft)
29.06.2010 08:55 22,8 C 71 % 1015,5 hPa 0,0 l/m 8,5 km/h (2 Bft) N 360 0 min 0 W/m 17,3 C 22,1 C 8,5 km/h (2 Bft)
29.06.2010 09:00 23,0 C 69 % 1015,5 hPa 0,0 l/m 10,0 km/h (2 Bft) NW 310 0 min 0 W/m 17,0 C 22,0 C 10,0 km/h (2 Bft)
29.06.2010 09:06 23,4 C 69 % 1015,5 hPa 0,0 l/m 7,9 km/h (2 Bft) NW 325 0 min 0 W/m 17,4 C 22,9 C 7,9 km/h (2 Bft)
29.06.2010 09:11 23,7 C 67 % 1015,5 hPa 0,0 l/m 13,4 km/h (3 Bft) NW 320 0 min 0 W/m 17,2 C 22,0 C 13,4 km/h (3 Bft)
29.06.2010 09:16 23,7 C 67 % 1015,5 hPa 0,0 l/m 9,4 km/h (2 Bft) N-NW 340 0 min 0 W/m 17,2 C 22,9 C 9,4 km/h (2 Bft)
29.06.2010 09:20 23,8 C 66 % 1015,5 hPa 0,0 l/m 13,0 km/h (3 Bft) N 355 0 min 0 W/m 17,1 C 22,2 C 13,0 km/h (3 Bft)
29.06.2010 09:25 24,0 C 64 % 1015,5 hPa 0,0 l/m 13,5 km/h (3 Bft) N-NW 335 0 min 0 W/m 16,8 C 22,4 C 13,5 km/h (3 Bft)
29.06.2010 09:30 24,2 C 64 % 1015,5 hPa 0,0 l/m 12,3 km/h (2 Bft) N-NW 340 0 min 0 W/m 16,9 C 22,8 C 12,3 km/h (2 Bft)
29.06.2010 09:35 24,6 C 61 % 1015,5 hPa 0,0 l/m 14,8 km/h (3 Bft) N-NW 330 0 min 0 W/m 16,6 C 22,9 C 14,8 km/h (3 Bft)
29.06.2010 09:40 24,6 C 62 % 1015,5 hPa 0,0 l/m 14,1 km/h (3 Bft) N-NW 340 0 min 0 W/m 16,8 C 23,0 C 14,1 km/h (3 Bft)
29.06.2010 09:45 24,4 C 63 % 1015,5 hPa 0,0 l/m 12,2 km/h (2 Bft) N-NW 335 0 min 0 W/m 16,9 C 23,1 C 12,2 km/h (2 Bft)
29.06.2010 09:51 24,4 C 63 % 1015,5 hPa 0,0 l/m 10,7 km/h (2 Bft) N-NW 330 0 min 0 W/m 16,9 C 23,4 C 10,7 km/h (2 Bft)
29.06.2010 09:56 24,6 C 64 % 1015,5 hPa 0,0 l/m 12,2 km/h (2 Bft) N 355 0 min 0 W/m 17,3 C 23,3 C 12,2 km/h (2 Bft)
29.06.2010 10:00 25,0 C 64 % 1015,5 hPa 0,0 l/m 13,1 km/h (3 Bft) N-NW 345 0 min 0 W/m 17,7 C 23,6 C 13,1 km/h (3 Bft)
29.06.2010 10:05 25,1 C 64 % 1015,5 hPa 0,0 l/m 13,8 km/h (3 Bft) N-NW 345 0 min 0 W/m 17,8 C 23,6 C 13,8 km/h (3 Bft)
29.06.2010 10:10 25,2 C 62 % 1016,5 hPa 0,0 l/m 14,5 km/h (3 Bft) N-NW 345 0 min 0 W/m 17,4 C 23,6 C 14,5 km/h (3 Bft)
29.06.2010 10:15 25,5 C 62 % 1015,5 hPa 0,0 l/m 10,6 km/h (2 Bft) N 355 0 min 0 W/m 17,7 C 24,6 C 10,6 km/h (2 Bft)
29.06.2010 10:21 25,7 C 62 % 1015,5 hPa 0,0 l/m 12,0 km/h (2 Bft) NW 310 0 min 0 W/m 17,9 C 24,6 C 12,0 km/h (2 Bft)
29.06.2010 10:26 26,0 C 58 % 1015,5 hPa 0,0 l/m 13,7 km/h (3 Bft) NW 320 0 min 0 W/m 17,1 C 24,7 C 13,7 km/h (3 Bft)
29.06.2010 10:30 26,1 C 59 % 1015,5 hPa 0,0 l/m 15,3 km/h (3 Bft) N 355 0 min 0 W/m 17,4 C 24,6 C 15,3 km/h (3 Bft)
29.06.2010 10:35 26,4 C 59 % 1016,5 hPa 0,0 l/m 12,1 km/h (2 Bft) NW 320 0 min 0 W/m 17,7 C 25,4 C 12,1 km/h (2 Bft)
29.06.2010 10:40 26,7 C 57 % 1016,5 hPa 0,0 l/m 14,4 km/h (3 Bft) N-NW 335 0 min 0 W/m 17,5 C 25,4 C 14,4 km/h (3 Bft)
29.06.2010 10:45 26,5 C 56 % 1016,5 hPa 0,0 l/m 10,8 km/h (2 Bft) W-NW 295 0 min 0 W/m 17,0 C 25,7 C 10,8 km/h (2 Bft)
29.06.2010 10:50 26,4 C 56 % 1016,5 hPa 0,0 l/m 9,4 km/h (2 Bft) N 350 0 min 0 W/m 16,9 C 25,8 C 9,4 km/h (2 Bft)
29.06.2010 10:55 26,6 C 57 % 1016,5 hPa 0,0 l/m 8,8 km/h (2 Bft) N-NW 335 0 min 0 W/m 17,4 C 26,1 C 8,8 km/h (2 Bft)
29.06.2010 11:01 27,0 C 55 % 1016,5 hPa 0,0 l/m 11,8 km/h (2 Bft) NW 320 0 min 0 W/m 17,2 C 26,1 C 11,8 km/h (2 Bft)
29.06.2010 11:05 27,1 C 55 % 1016,5 hPa 0,0 l/m 12,7 km/h (3 Bft) N-NW 340 0 min 0 W/m 17,3 C 26,1 C 12,7 km/h (3 Bft)
29.06.2010 11:10 27,1 C 56 % 1015,5 hPa 0,0 l/m 11,1 km/h (2 Bft) NW 315 0 min 0 W/m 17,5 C 26,3 C 11,1 km/h (2 Bft)
29.06.2010 11:15 27,4 C 55 % 1015,5 hPa 0,0 l/m 10,3 km/h (2 Bft) N-NW 335 0 min 0 W/m 17,5 C 26,8 C 10,3 km/h (2 Bft)
29.06.2010 11:20 27,4 C 55 % 1015,5 hPa 0,0 l/m 12,6 km/h (3 Bft) N 350 0 min 0 W/m 17,5 C 26,5 C 12,6 km/h (3 Bft)
29.06.2010 11:26 27,4 C 55 % 1015,5 hPa 0,0 l/m 16,0 km/h (3 Bft) NW 325 0 min 0 W/m 17,5 C 26,1 C 16,0 km/h (3 Bft)
29.06.2010 11:31 27,6 C 52 % 1015,5 hPa 0,0 l/m 16,1 km/h (3 Bft) W-NW 295 0 min 0 W/m 16,8 C 26,4 C 16,1 km/h (3 Bft)
29.06.2010 11:36 27,7 C 51 % 1015,5 hPa 0,0 l/m 13,8 km/h (3 Bft) W 280 0 min 0 W/m 16,6 C 26,7 C 13,8 km/h (3 Bft)
29.06.2010 11:40 27,8 C 51 % 1015,5 hPa 0,0 l/m 19,0 km/h (3 Bft) NW 320 0 min 0 W/m 16,7 C 26,4 C 19,0 km/h (3 Bft)
29.06.2010 11:45 28,0 C 50 % 1015,5 hPa 0,0 l/m 12,1 km/h (2 Bft) N-NW 335 0 min 0 W/m 16,6 C 27,2 C 12,1 km/h (2 Bft)
29.06.2010 11:50 28,2 C 48 % 1015,5 hPa 0,0 l/m 16,3 km/h (3 Bft) N-NW 330 0 min 0 W/m 16,1 C 27,1 C 16,3 km/h (3 Bft)
29.06.2010 11:55 28,2 C 49 % 1015,5 hPa 0,0 l/m 15,6 km/h (3 Bft) N-NW 335 0 min 0 W/m 16,5 C 27,1 C 15,6 km/h (3 Bft)
29.06.2010 12:00 28,4 C 49 % 1015,5 hPa 0,0 l/m 15,1 km/h (3 Bft) N 360 0 min 0 W/m 16,6 C 27,4 C 15,1 km/h (3 Bft)
29.06.2010 12:05 28,4 C 50 % 1015,5 hPa 0,0 l/m 14,6 km/h (3 Bft) N 350 0 min 0 W/m 17,0 C 27,5 C 14,6 km/h (3 Bft)
29.06.2010 12:10 28,3 C 50 % 1015,5 hPa 0,0 l/m 17,0 km/h (3 Bft) N-NO 15 0 min 0 W/m 16,9 C 27,1 C 17,0 km/h (3 Bft)
29.06.2010 12:15 28,4 C 52 % 1015,5 hPa 0,0 l/m 12,0 km/h (2 Bft) N 360 0 min 0 W/m 17,6 C 27,7 C 12,0 km/h (2 Bft)
29.06.2010 12:20 28,3 C 50 % 1015,5 hPa 0,0 l/m 15,0 km/h (3 Bft) N 10 0 min 0 W/m 16,9 C 27,3 C 15,0 km/h (3 Bft)
29.06.2010 12:25 28,0 C 51 % 1015,5 hPa 0,0 l/m 12,0 km/h (2 Bft) N 5 0 min 0 W/m 16,9 C 27,2 C 12,0 km/h (2 Bft)
29.06.2010 12:30 28,0 C 51 % 1015,5 hPa 0,0 l/m 12,5 km/h (2 Bft) N 5 0 min 0 W/m 16,9 C 27,2 C 12,5 km/h (2 Bft)
29.06.2010 12:36 27,9 C 50 % 1016,5 hPa 0,0 l/m 14,0 km/h (3 Bft) N 360 0 min 0 W/m 16,5 C 26,9 C 14,0 km/h (3 Bft)
29.06.2010 12:41 27,9 C 51 % 1016,5 hPa 0,0 l/m 10,1 km/h (2 Bft) N 355 0 min 0 W/m 16,8 C 27,4 C 10,1 km/h (2 Bft)
29.06.2010 12:45 27,8 C 51 % 1016,5 hPa 0,0 l/m 11,5 km/h (2 Bft) N 360 0 min 0 W/m 16,7 C 27,1 C 11,5 km/h (2 Bft)
29.06.2010 12:50 27,7 C 52 % 1016,5 hPa 0,0 l/m 15,6 km/h (3 Bft) N 360 0 min 0 W/m 16,9 C 26,5 C 15,6 km/h (3 Bft)
29.06.2010 12:55 27,6 C 53 % 1016,5 hPa 0,0 l/m 12,1 km/h (2 Bft) N 360 0 min 0 W/m 17,1 C 26,8 C 12,1 km/h (2 Bft)
29.06.2010 13:00 27,5 C 52 % 1016,5 hPa 0,0 l/m 16,1 km/h (3 Bft) N 5 0 min 0 W/m 16,7 C 26,2 C 16,1 km/h (3 Bft)
29.06.2010 13:06 27,3 C 53 % 1016,5 hPa 0,0 l/m 16,1 km/h (3 Bft) N 5 0 min 0 W/m 16,9 C 26,0 C 16,1 km/h (3 Bft)
29.06.2010 13:10 27,0 C 54 % 1016,5 hPa 0,0 l/m 16,8 km/h (3 Bft) N-NW 340 0 min 0 W/m 16,9 C 25,5 C 16,8 km/h (3 Bft)
29.06.2010 13:15 26,5 C 58 % 1016,5 hPa 0,0 l/m 23,0 km/h (4 Bft) N 5 0 min 0 W/m 17,5 C 24,3 C 23,0 km/h (4 Bft)
29.06.2010 13:20 27,0 C 57 % 1016,5 hPa 0,0 l/m 17,3 km/h (3 Bft) NW 325 0 min 0 W/m 17,7 C 25,5 C 17,3 km/h (3 Bft)
29.06.2010 13:25 27,5 C 55 % 1016,5 hPa 0,0 l/m 14,6 km/h (3 Bft) N-NW 330 0 min 0 W/m 17,6 C 26,4 C 14,6 km/h (3 Bft)
29.06.2010 13:30 27,7 C 53 % 1016,5 hPa 0,0 l/m 14,7 km/h (3 Bft) NW 315 0 min 0 W/m 17,2 C 26,6 C 14,7 km/h (3 Bft)
29.06.2010 13:35 27,6 C 55 % 1016,5 hPa 0,0 l/m 16,6 km/h (3 Bft) W-NW 300 0 min 0 W/m 17,7 C 26,3 C 16,6 km/h (3 Bft)
29.06.2010 13:41 27,4 C 54 % 1016,5 hPa 0,0 l/m 14,0 km/h (3 Bft) N-NW 340 0 min 0 W/m 17,3 C 26,3 C 14,0 km/h (3 Bft)
29.06.2010 13:46 27,4 C 54 % 1016,5 hPa 0,0 l/m 17,8 km/h (3 Bft) NW 320 0 min 0 W/m 17,3 C 25,9 C 17,8 km/h (3 Bft)
29.06.2010 13:50 27,5 C 54 % 1016,5 hPa 0,0 l/m 15,8 km/h (3 Bft) N-NW 335 0 min 0 W/m 17,3 C 26,3 C 15,8 km/h (3 Bft)
29.06.2010 13:55 27,6 C 51 % 1016,5 hPa 0,0 l/m 12,3 km/h (2 Bft) NW 310 0 min 0 W/m 16,5 C 26,7 C 12,3 km/h (2 Bft)
29.06.2010 14:00 27,2 C 52 % 1016,5 hPa 0,0 l/m 16,6 km/h (3 Bft) W-NW 300 0 min 0 W/m 16,5 C 25,8 C 16,6 km/h (3 Bft)
29.06.2010 14:06 27,2 C 52 % 1016,5 hPa 0,0 l/m 18,5 km/h (3 Bft) N-NW 340 0 min 0 W/m 16,5 C 25,6 C 18,5 km/h (3 Bft)
29.06.2010 14:11 27,2 C 52 % 1016,5 hPa 0,0 l/m 18,1 km/h (3 Bft) NW 315 0 min 0 W/m 16,5 C 25,7 C 18,1 km/h (3 Bft)
29.06.2010 14:16 27,3 C 53 % 1016,5 hPa 0,0 l/m 13,1 km/h (3 Bft) NW 310 0 min 0 W/m 16,9 C 26,3 C 13,1 km/h (3 Bft)
29.06.2010 14:20 27,4 C 53 % 1016,5 hPa 0,0 l/m 14,3 km/h (3 Bft) N-NW 330 0 min 0 W/m 17,0 C 26,3 C 14,3 km/h (3 Bft)
29.06.2010 14:25 27,5 C 54 % 1016,5 hPa 0,0 l/m 13,1 km/h (3 Bft) N-NW 345 0 min 0 W/m 17,3 C 26,5 C 13,1 km/h (3 Bft)
29.06.2010 14:30 27,6 C 53 % 1016,5 hPa 0,0 l/m 14,3 km/h (3 Bft) NW 325 0 min 0 W/m 17,1 C 26,5 C 14,3 km/h (3 Bft)
29.06.2010 14:35 27,0 C 54 % 1016,5 hPa 0,0 l/m 16,5 km/h (3 Bft) NW 315 0 min 0 W/m 16,9 C 25,6 C 16,5 km/h (3 Bft)
29.06.2010 14:40 26,9 C 55 % 1016,5 hPa 0,0 l/m 18,4 km/h (3 Bft) NW 315 0 min 0 W/m 17,1 C 25,3 C 18,4 km/h (3 Bft)
29.06.2010 14:46 26,8 C 55 % 1016,5 hPa 0,0 l/m 15,2 km/h (3 Bft) N 355 0 min 0 W/m 17,0 C 25,5 C 15,2 km/h (3 Bft)
29.06.2010 14:51 26,5 C 57 % 1016,5 hPa 0,0 l/m 13,5 km/h (3 Bft) N 360 0 min 0 W/m 17,3 C 25,3 C 13,5 km/h (3 Bft)
29.06.2010 14:56 26,4 C 56 % 1016,5 hPa 0,0 l/m 15,6 km/h (3 Bft) N 355 0 min 0 W/m 16,9 C 24,9 C 15,6 km/h (3 Bft)
29.06.2010 15:00 26,4 C 51 % 1016,5 hPa 0,0 l/m 13,1 km/h (3 Bft) N-NW 335 0 min 0 W/m 15,4 C 25,2 C 13,1 km/h (3 Bft)
29.06.2010 15:05 26,2 C 47 % 1016,5 hPa 0,0 l/m 14,0 km/h (3 Bft) N 355 0 min 0 W/m 14,0 C 24,9 C 14,0 km/h (3 Bft)
29.06.2010 15:11 25,8 C 47 % 1016,5 hPa 0,0 l/m 15,8 km/h (3 Bft) N 360 0 min 0 W/m 13,6 C 24,2 C 15,8 km/h (3 Bft)
29.06.2010 15:16 25,4 C 48 % 1016,5 hPa 0,0 l/m 12,1 km/h (2 Bft) N 355 0 min 0 W/m 13,6 C 24,2 C 12,1 km/h (2 Bft)
29.06.2010 15:21 25,2 C 49 % 1016,5 hPa 0,0 l/m 11,1 km/h (2 Bft) N-NW 345 0 min 0 W/m 13,7 C 24,2 C 11,1 km/h (2 Bft)
29.06.2010 15:25 25,7 C 47 % 1016,5 hPa 0,0 l/m 10,6 km/h (2 Bft) N 350 0 min 0 W/m 13,5 C 24,8 C 10,6 km/h (2 Bft)
29.06.2010 15:30 26,1 C 45 % 1016,5 hPa 0,0 l/m 13,5 km/h (3 Bft) N 355 0 min 0 W/m 13,2 C 24,8 C 13,5 km/h (3 Bft)
29.06.2010 15:35 26,6 C 42 % 1016,5 hPa 0,0 l/m 10,7 km/h (2 Bft) N-NW 345 0 min 0 W/m 12,6 C 25,8 C 10,7 km/h (2 Bft)
29.06.2010 15:40 26,8 C 45 % 1016,5 hPa 0,0 l/m 11,1 km/h (2 Bft) N-NW 340 0 min 0 W/m 13,9 C 26,0 C 11,1 km/h (2 Bft)
29.06.2010 15:45 26,7 C 45 % 1016,5 hPa 0,0 l/m 7,9 km/h (2 Bft) N 360 0 min 0 W/m 13,8 C 26,4 C 7,9 km/h (2 Bft)
29.06.2010 15:51 26,6 C 43 % 1016,5 hPa 0,0 l/m 10,8 km/h (2 Bft) N 350 0 min 0 W/m 13,0 C 25,8 C 10,8 km/h (2 Bft)
29.06.2010 15:56 26,0 C 42 % 1016,5 hPa 0,0 l/m 11,1 km/h (2 Bft) N 350 0 min 0 W/m 12,1 C 25,1 C 11,1 km/h (2 Bft)
29.06.2010 16:00 25,3 C 44 % 1016,5 hPa 0,0 l/m 8,8 km/h (2 Bft) N 5 0 min 0 W/m 12,2 C 24,7 C 8,8 km/h (2 Bft)
29.06.2010 16:05 25,1 C 47 % 1016,5 hPa 0,0 l/m 9,4 km/h (2 Bft) NW 315 0 min 0 W/m 13,0 C 24,4 C 9,4 km/h (2 Bft)
29.06.2010 16:11 25,0 C 49 % 1016,5 hPa 0,0 l/m 9,2 km/h (2 Bft) NW 310 0 min 0 W/m 13,5 C 24,3 C 9,2 km/h (2 Bft)
29.06.2010 16:16 24,8 C 50 % 1016,5 hPa 0,0 l/m 8,4 km/h (2 Bft) N-NW 340 0 min 0 W/m 13,7 C 24,3 C 8,4 km/h (2 Bft)
29.06.2010 16:21 24,7 C 51 % 1016,5 hPa 0,0 l/m 10,3 km/h (2 Bft) NW 325 0 min 0 W/m 13,9 C 23,8 C 10,3 km/h (2 Bft)
29.06.2010 16:25 24,5 C 51 % 1016,5 hPa 0,0 l/m 9,6 km/h (2 Bft) NW 315 0 min 0 W/m 13,7 C 23,7 C 9,6 km/h (2 Bft)
29.06.2010 16:30 24,4 C 52 % 1016,5 hPa 0,0 l/m 6,4 km/h (2 Bft) N-NW 335 0 min 0 W/m 13,9 C 24,4 C 6,4 km/h (2 Bft)
29.06.2010 16:35 24,3 C 53 % 1016,5 hPa 0,0 l/m 11,8 km/h (2 Bft) NW 315 0 min 0 W/m 14,1 C 23,0 C 11,8 km/h (2 Bft)
29.06.2010 16:40 24,5 C 54 % 1016,5 hPa 0,0 l/m 10,6 km/h (2 Bft) NW 320 0 min 0 W/m 14,6 C 23,5 C 10,6 km/h (2 Bft)
29.06.2010 16:45 25,0 C 50 % 1016,5 hPa 0,0 l/m 15,4 km/h (3 Bft) N-NW 340 0 min 0 W/m 13,8 C 23,2 C 15,4 km/h (3 Bft)
29.06.2010 16:51 25,6 C 50 % 1016,5 hPa 0,0 l/m 16,2 km/h (3 Bft) N-NW 330 0 min 0 W/m 14,4 C 23,9 C 16,2 km/h (3 Bft)
29.06.2010 16:56 25,9 C 49 % 1016,5 hPa 0,0 l/m 16,5 km/h (3 Bft) N-NW 330 0 min 0 W/m 14,4 C 24,2 C 16,5 km/h (3 Bft)
29.06.2010 17:00 26,5 C 45 % 1016,5 hPa 0,0 l/m 18,3 km/h (3 Bft) NW 310 0 min 0 W/m 13,6 C 24,8 C 18,3 km/h (3 Bft)
29.06.2010 17:05 26,5 C 45 % 1016,5 hPa 0,0 l/m 19,2 km/h (3 Bft) N-NW 330 0 min 0 W/m 13,6 C 24,7 C 19,2 km/h (3 Bft)
29.06.2010 17:10 26,4 C 45 % 1016,5 hPa 0,0 l/m 15,1 km/h (3 Bft) NW 315 0 min 0 W/m 13,5 C 25,0 C 15,1 km/h (3 Bft)
29.06.2010 17:16 26,3 C 44 % 1016,5 hPa 0,0 l/m 14,8 km/h (3 Bft) NW 305 0 min 0 W/m 13,1 C 24,9 C 14,8 km/h (3 Bft)
29.06.2010 17:21 25,9 C 45 % 1016,5 hPa 0,0 l/m 14,5 km/h (3 Bft) NW 305 0 min 0 W/m 13,0 C 24,5 C 14,5 km/h (3 Bft)
29.06.2010 17:25 25,6 C 45 % 1016,5 hPa 0,0 l/m 16,6 km/h (3 Bft) N-NW 335 0 min 0 W/m 12,8 C 23,8 C 16,6 km/h (3 Bft)
29.06.2010 17:30 25,2 C 46 % 1016,5 hPa 0,0 l/m 14,8 km/h (3 Bft) N-NW 330 0 min 0 W/m 12,7 C 23,6 C 14,8 km/h (3 Bft)
29.06.2010 17:35 24,7 C 46 % 1016,5 hPa 0,0 l/m 14,5 km/h (3 Bft) NW 325 0 min 0 W/m 12,3 C 23,0 C 14,5 km/h (3 Bft)
29.06.2010 17:40 24,5 C 49 % 1016,5 hPa 0,0 l/m 16,7 km/h (3 Bft) N-NW 345 0 min 0 W/m 13,1 C 22,4 C 16,7 km/h (3 Bft)
29.06.2010 17:46 24,4 C 51 % 1016,5 hPa 0,0 l/m 13,0 km/h (3 Bft) N 350 0 min 0 W/m 13,6 C 22,9 C 13,0 km/h (3 Bft)
29.06.2010 17:51 24,4 C 48 % 1016,5 hPa 0,0 l/m 17,0 km/h (3 Bft) N 350 0 min 0 W/m 12,7 C 22,3 C 17,0 km/h (3 Bft)
29.06.2010 17:56 24,3 C 49 % 1016,5 hPa 0,0 l/m 13,0 km/h (3 Bft) N-NW 330 0 min 0 W/m 12,9 C 22,8 C 13,0 km/h (3 Bft)
29.06.2010 18:00 24,2 C 52 % 1015,5 hPa 0,0 l/m 9,9 km/h (2 Bft) N 5 0 min 0 W/m 13,7 C 23,3 C 9,9 km/h (2 Bft)
29.06.2010 18:05 23,7 C 51 % 1015,5 hPa 0,0 l/m 12,3 km/h (2 Bft) N 360 0 min 0 W/m 13,0 C 22,2 C 12,3 km/h (2 Bft)
29.06.2010 18:11 23,2 C 51 % 1015,5 hPa 0,0 l/m 11,0 km/h (2 Bft) N-NO 20 0 min 0 W/m 12,5 C 21,9 C 11,0 km/h (2 Bft)
29.06.2010 18:16 23,0 C 53 % 1015,5 hPa 0,0 l/m 9,8 km/h (2 Bft) N 360 0 min 0 W/m 12,9 C 22,0 C 9,8 km/h (2 Bft)
29.06.2010 18:20 22,7 C 56 % 1015,5 hPa 0,0 l/m 15,0 km/h (3 Bft) N-NO 20 0 min 0 W/m 13,5 C 20,5 C 15,0 km/h (3 Bft)
29.06.2010 18:25 22,6 C 57 % 1015,5 hPa 0,0 l/m 12,2 km/h (2 Bft) N-NO 20 0 min 0 W/m 13,6 C 21,0 C 12,2 km/h (2 Bft)
29.06.2010 18:30 22,4 C 58 % 1015,5 hPa 0,0 l/m 14,2 km/h (3 Bft) N-NO 25 0 min 0 W/m 13,7 C 20,3 C 14,2 km/h (3 Bft)
29.06.2010 18:35 22,4 C 58 % 1015,5 hPa 0,0 l/m 11,7 km/h (2 Bft) N 10 0 min 0 W/m 13,7 C 20,9 C 11,7 km/h (2 Bft)
29.06.2010 18:40 22,3 C 60 % 1015,5 hPa 0,0 l/m 14,2 km/h (3 Bft) N 360 0 min 0 W/m 14,2 C 20,2 C 14,2 km/h (3 Bft)
29.06.2010 18:46 22,1 C 62 % 1015,5 hPa 0,0 l/m 15,0 km/h (3 Bft) N 10 0 min 0 W/m 14,5 C 19,8 C 15,0 km/h (3 Bft)
29.06.2010 18:51 22,0 C 62 % 1015,5 hPa 0,0 l/m 16,0 km/h (3 Bft) N 355 0 min 0 W/m 14,4 C 19,5 C 16,0 km/h (3 Bft)
29.06.2010 18:55 21,8 C 61 % 1015,5 hPa 0,0 l/m 15,8 km/h (3 Bft) N-NW 345 0 min 0 W/m 13,9 C 19,3 C 15,8 km/h (3 Bft)
29.06.2010 19:00 21,7 C 59 % 1015,5 hPa 0,0 l/m 13,7 km/h (3 Bft) N 10 0 min 0 W/m 13,3 C 19,6 C 13,7 km/h (3 Bft)
29.06.2010 19:05 21,7 C 58 % 1015,5 hPa 0,0 l/m 23,1 km/h (4 Bft) N 5 0 min 0 W/m 13,1 C 17,9 C 23,1 km/h (4 Bft)
29.06.2010 19:11 21,4 C 59 % 1015,5 hPa 0,0 l/m 18,6 km/h (3 Bft) N 360 0 min 0 W/m 13,0 C 18,3 C 18,6 km/h (3 Bft)
29.06.2010 19:16 21,2 C 59 % 1015,5 hPa 0,0 l/m 11,6 km/h (2 Bft) N 355 0 min 0 W/m 12,9 C 19,5 C 11,6 km/h (2 Bft)
29.06.2010 19:20 21,2 C 60 % 1015,5 hPa 0,0 l/m 12,2 km/h (2 Bft) N 360 0 min 0 W/m 13,1 C 19,4 C 12,2 km/h (2 Bft)
29.06.2010 19:25 21,0 C 60 % 1015,5 hPa 0,0 l/m 9,2 km/h (2 Bft) N-NW 335 0 min 0 W/m 12,9 C 20,0 C 9,2 km/h (2 Bft)
29.06.2010 19:30 21,0 C 60 % 1015,5 hPa 0,0 l/m 9,6 km/h (2 Bft) N 355 0 min 0 W/m 12,9 C 19,9 C 9,6 km/h (2 Bft)
29.06.2010 19:35 21,0 C 61 % 1015,5 hPa 0,0 l/m 8,2 km/h (2 Bft) N-NW 340 0 min 0 W/m 13,2 C 20,3 C 8,2 km/h (2 Bft)
29.06.2010 19:40 21,0 C 61 % 1015,5 hPa 0,0 l/m 13,1 km/h (3 Bft) N 350 0 min 0 W/m 13,2 C 18,9 C 13,1 km/h (3 Bft)
29.06.2010 19:46 21,0 C 61 % 1015,5 hPa 0,0 l/m 9,5 km/h (2 Bft) NW 320 0 min 0 W/m 13,2 C 19,9 C 9,5 km/h (2 Bft)
29.06.2010 19:51 20,9 C 62 % 1015,5 hPa 0,0 l/m 15,0 km/h (3 Bft) NW 325 0 min 0 W/m 13,3 C 18,3 C 15,0 km/h (3 Bft)
29.06.2010 19:55 20,9 C 62 % 1015,5 hPa 0,0 l/m 11,6 km/h (2 Bft) N 350 0 min 0 W/m 13,3 C 19,2 C 11,6 km/h (2 Bft)
29.06.2010 20:00 20,8 C 63 % 1015,5 hPa 0,0 l/m 13,6 km/h (3 Bft) N-NW 340 0 min 0 W/m 13,5 C 18,5 C 13,6 km/h (3 Bft)
29.06.2010 20:05 20,8 C 63 % 1015,5 hPa 0,0 l/m 6,5 km/h (2 Bft) N 350 0 min 0 W/m 13,5 C 20,8 C 6,5 km/h (2 Bft)
29.06.2010 20:11 20,9 C 63 % 1015,5 hPa 0,0 l/m 6,5 km/h (2 Bft) N 350 0 min 0 W/m 13,6 C 20,9 C 6,5 km/h (2 Bft)
29.06.2010 20:16 20,9 C 62 % 1015,5 hPa 0,0 l/m 9,3 km/h (2 Bft) NW 325 0 min 0 W/m 13,3 C 19,9 C 9,3 km/h (2 Bft)
29.06.2010 20:20 20,8 C 62 % 1015,5 hPa 0,0 l/m 9,2 km/h (2 Bft) NW 315 0 min 0 W/m 13,2 C 19,8 C 9,2 km/h (2 Bft)
29.06.2010 20:25 20,8 C 61 % 1015,5 hPa 0,0 l/m 9,1 km/h (2 Bft) NW 320 0 min 0 W/m 13,0 C 19,8 C 9,1 km/h (2 Bft)
29.06.2010 20:30 20,8 C 61 % 1015,5 hPa 0,0 l/m 12,6 km/h (3 Bft) NW 310 0 min 0 W/m 13,0 C 18,8 C 12,6 km/h (3 Bft)
29.06.2010 20:35 20,7 C 61 % 1016,5 hPa 0,0 l/m 11,5 km/h (2 Bft) NW 315 0 min 0 W/m 12,9 C 19,0 C 11,5 km/h (2 Bft)
29.06.2010 20:41 20,6 C 62 % 1016,5 hPa 0,0 l/m 10,7 km/h (2 Bft) NW 315 0 min 0 W/m 13,1 C 19,1 C 10,7 km/h (2 Bft)
29.06.2010 20:46 20,6 C 62 % 1016,5 hPa 0,0 l/m 12,8 km/h (3 Bft) W-NW 300 0 min 0 W/m 13,1 C 18,5 C 12,8 km/h (3 Bft)
29.06.2010 20:50 20,4 C 60 % 1016,5 hPa 0,0 l/m 16,5 km/h (3 Bft) NW 320 0 min 0 W/m 12,4 C 17,4 C 16,5 km/h (3 Bft)
29.06.2010 20:55 20,2 C 61 % 1016,5 hPa 0,0 l/m 17,4 km/h (3 Bft) N-NW 330 0 min 0 W/m 12,4 C 17,0 C 17,4 km/h (3 Bft)
29.06.2010 21:00 20,2 C 62 % 1016,5 hPa 0,0 l/m 16,6 km/h (3 Bft) NW 320 0 min 0 W/m 12,7 C 17,1 C 16,6 km/h (3 Bft)
29.06.2010 21:06 20,0 C 62 % 1016,5 hPa 0,0 l/m 14,3 km/h (3 Bft) NW 315 0 min 0 W/m 12,5 C 17,4 C 14,3 km/h (3 Bft)
29.06.2010 21:11 19,9 C 62 % 1016,5 hPa 0,0 l/m 14,3 km/h (3 Bft) NW 315 0 min 0 W/m 12,4 C 17,3 C 14,3 km/h (3 Bft)
29.06.2010 21:15 19,8 C 62 % 1016,5 hPa 0,0 l/m 12,8 km/h (3 Bft) NW 305 0 min 0 W/m 12,3 C 17,6 C 12,8 km/h (3 Bft)
29.06.2010 21:20 19,8 C 63 % 1016,5 hPa 0,0 l/m 10,0 km/h (2 Bft) NW 305 0 min 0 W/m 12,5 C 18,4 C 10,0 km/h (2 Bft)
29.06.2010 21:25 19,7 C 63 % 1016,5 hPa 0,0 l/m 11,5 km/h (2 Bft) NW 305 0 min 0 W/m 12,5 C 17,8 C 11,5 km/h (2 Bft)
29.06.2010 21:30 19,6 C 63 % 1016,5 hPa 0,0 l/m 10,5 km/h (2 Bft) NW 305 0 min 0 W/m 12,4 C 18,0 C 10,5 km/h (2 Bft)
29.06.2010 21:35 19,5 C 63 % 1016,5 hPa 0,0 l/m 12,7 km/h (3 Bft) NW 305 0 min 0 W/m 12,3 C 17,3 C 12,7 km/h (3 Bft)
29.06.2010 21:41 19,3 C 64 % 1016,5 hPa 0,0 l/m 14,6 km/h (3 Bft) NW 320 0 min 0 W/m 12,3 C 16,5 C 14,6 km/h (3 Bft)
29.06.2010 21:46 19,2 C 65 % 1016,5 hPa 0,0 l/m 9,8 km/h (2 Bft) NW 310 0 min 0 W/m 12,5 C 17,8 C 9,8 km/h (2 Bft)
29.06.2010 21:50 19,0 C 64 % 1016,5 hPa 0,0 l/m 10,7 km/h (2 Bft) NW 305 0 min 0 W/m 12,0 C 17,3 C 10,7 km/h (2 Bft)
29.06.2010 21:55 19,0 C 65 % 1016,5 hPa 0,0 l/m 7,6 km/h (2 Bft) NW 320 0 min 0 W/m 12,3 C 18,5 C 7,6 km/h (2 Bft)
29.06.2010 22:00 18,8 C 66 % 1016,5 hPa 0,0 l/m 7,3 km/h (2 Bft) W-NW 295 0 min 0 W/m 12,3 C 18,4 C 7,3 km/h (2 Bft)
29.06.2010 22:06 18,8 C 66 % 1016,5 hPa 0,0 l/m 9,9 km/h (2 Bft) NW 305 0 min 0 W/m 12,3 C 17,4 C 9,9 km/h (2 Bft)
29.06.2010 22:10 18,8 C 67 % 1016,5 hPa 0,0 l/m 8,6 km/h (2 Bft) W-NW 290 0 min 0 W/m 12,5 C 17,8 C 8,6 km/h (2 Bft)
29.06.2010 22:15 18,6 C 67 % 1016,5 hPa 0,0 l/m 5,4 km/h (2 Bft) W-NW 285 0 min 0 W/m 12,3 C 18,6 C 5,4 km/h (2 Bft)
29.06.2010 22:20 18,5 C 68 % 1016,5 hPa 0,0 l/m 7,9 km/h (2 Bft) W-SW 255 0 min 0 W/m 12,5 C 17,8 C 7,9 km/h (2 Bft)
29.06.2010 22:25 18,4 C 68 % 1016,5 hPa 0,0 l/m 5,2 km/h (1 Bft) W 275 0 min 0 W/m 12,4 C 18,4 C 5,2 km/h (1 Bft)
29.06.2010 22:31 18,3 C 68 % 1016,5 hPa 0,0 l/m 7,8 km/h (2 Bft) W 275 0 min 0 W/m 12,3 C 17,7 C 7,8 km/h (2 Bft)
29.06.2010 22:36 18,1 C 68 % 1016,5 hPa 0,0 l/m 7,3 km/h (2 Bft) W-NW 295 0 min 0 W/m 12,1 C 17,7 C 7,3 km/h (2 Bft)
29.06.2010 22:40 18,1 C 69 % 1016,5 hPa 0,0 l/m 10,8 km/h (2 Bft) NW 310 0 min 0 W/m 12,3 C 16,3 C 10,8 km/h (2 Bft)
29.06.2010 22:45 18,0 C 69 % 1016,5 hPa 0,0 l/m 9,7 km/h (2 Bft) W-NW 300 0 min 0 W/m 12,2 C 16,5 C 9,7 km/h (2 Bft)
29.06.2010 22:50 18,0 C 69 % 1016,5 hPa 0,0 l/m 10,8 km/h (2 Bft) NW 305 0 min 0 W/m 12,2 C 16,1 C 10,8 km/h (2 Bft)
29.06.2010 22:55 18,0 C 69 % 1016,5 hPa 0,0 l/m 9,8 km/h (2 Bft) W-NW 300 0 min 0 W/m 12,2 C 16,5 C 9,8 km/h (2 Bft)
29.06.2010 23:01 17,9 C 70 % 1016,5 hPa 0,0 l/m 13,0 km/h (3 Bft) W-NW 295 0 min 0 W/m 12,3 C 15,3 C 13,0 km/h (3 Bft)
29.06.2010 23:05 17,8 C 70 % 1016,5 hPa 0,0 l/m 16,0 km/h (3 Bft) NW 315 0 min 0 W/m 12,3 C 14,3 C 16,0 km/h (3 Bft)
29.06.2010 23:10 17,8 C 70 % 1016,5 hPa 0,0 l/m 11,5 km/h (2 Bft) NW 305 0 min 0 W/m 12,3 C 15,7 C 11,5 km/h (2 Bft)
29.06.2010 23:15 17,7 C 71 % 1016,5 hPa 0,0 l/m 16,1 km/h (3 Bft) NW 315 0 min 0 W/m 12,4 C 14,2 C 16,1 km/h (3 Bft)
29.06.2010 23:20 17,7 C 71 % 1016,5 hPa 0,0 l/m 12,0 km/h (2 Bft) NW 305 0 min 0 W/m 12,4 C 15,4 C 12,0 km/h (2 Bft)
29.06.2010 23:26 17,7 C 71 % 1016,5 hPa 0,0 l/m 10,1 km/h (2 Bft) NW 305 0 min 0 W/m 12,4 C 16,1 C 10,1 km/h (2 Bft)
29.06.2010 23:31 17,6 C 71 % 1016,5 hPa 0,0 l/m 10,5 km/h (2 Bft) W-NW 300 0 min 0 W/m 12,3 C 15,8 C 10,5 km/h (2 Bft)
29.06.2010 23:35 17,5 C 71 % 1016,5 hPa 0,0 l/m 11,2 km/h (2 Bft) NW 305 0 min 0 W/m 12,2 C 15,4 C 11,2 km/h (2 Bft)
29.06.2010 23:40 17,4 C 71 % 1016,5 hPa 0,0 l/m 18,3 km/h (3 Bft) W-NW 300 0 min 0 W/m 12,1 C 13,2 C 18,3 km/h (3 Bft)
29.06.2010 23:45 17,4 C 72 % 1016,5 hPa 0,0 l/m 7,9 km/h (2 Bft) W-NW 295 0 min 0 W/m 12,3 C 16,7 C 7,9 km/h (2 Bft)
29.06.2010 23:50 17,3 C 72 % 1016,5 hPa 0,0 l/m 8,3 km/h (2 Bft) W-NW 295 0 min 0 W/m 12,2 C 16,4 C 8,3 km/h (2 Bft)
29.06.2010 23:56 17,2 C 72 % 1016,5 hPa 0,0 l/m 14,0 km/h (3 Bft) NW 305 0 min 0 W/m 12,1 C 14,2 C 14,0 km/h (3 Bft)
_ Min-Zeit 05:41 15:35 02:25 - 01:01 - - - - 05:20 23:40 01:01
Minimum _ 15,1 C 42 % 1015,5 hPa - 0,0 km/h (0 Bft) - - - - 11,6 C 13,2 C 0,0 km/h (0 Bft)
_ Max-Zeit 12:00 06:11 00:00 00:00 19:05 - - 00:00 00:00 10:21 12:15 19:05
Maximum _ 28,4 C 82 % 1016,5 hPa 0,0 l/m 23,1 km/h
N (4 Bft)
- - 0 min 0 W/m 17,9 C 27,7 C 23,1 km/h
N (4 Bft)
Durchschnitt _ 21,4 C 65 % 1016,0 hPa #0,0 l/m 8,6 km/h (2 Bft) NW - #0 min. 0 W/m 14,2 C 20,5 C 8,6 km/h (2 Bft)
copyright by Holger Just